Regional Weather Roundup
Issued by NWS

Home | Current Version | Previous Version | Text Only | Print | Product List | Glossary On
Versions: 1 2 3 4 5 6 7 8 9 10 11 12 13 14 15 16 17 18 19 20 21 22 23 24 25 26 27 28 29 30 31 32 33 34 35 36 37 38 39 40 41 42 43 44 45 46 47 48 49 50
000
ASUS43 KDTX 271510
RWRMI
MICHIGAN HOURLY REGIONAL WEATHER ROUNDUP
NATIONAL WEATHER SERVICE DETROIT/PONTIAC MI
1100 AM EDT THU AUG 27 2015

NOTE: "FAIR" INDICATES FEW OR NO CLOUDS BELOW 12,000 FEET WITH NO
SIGNIFICANT WEATHER AND/OR OBSTRUCTION TO VISIBILITY.

MIZ047>049-052>055-059>063-066>070-074>076-081>083-271600-
SOUTHEAST LOWER MICHIGAN

CITY           SKY/WX    TMP DP  RH WIND       PRES   REMARKS
ADRIAN         PTSUNNY   64  52  64 NW5       30.24R
ALMA           CLOUDY    63  54  71 CALM      30.22F
ANN ARBOR      CLOUDY    63  52  67 N8        30.23R
BAD AXE        CLOUDY    61  51  69 NW8       30.21S
CARO           CLOUDY    61  54  78 N5        30.21S
DETROIT CITY   CLOUDY    63  51  65 VRB6      30.22R
DETROIT        CLOUDY    65  51  60 NW12      30.23R
FLINT          CLOUDY    64  51  62 NW9       30.23S
GROSSE ILE     MOSUNNY   66  54  63 NW9       30.21R
HILLSDALE      PTSUNNY   63  56  79 N5        30.24R
HOWELL         CLOUDY    61  52  72 CALM      30.23S

CITY           SKY/WX    TMP DP  RH WIND       PRES   REMARKS
JACKSON        CLOUDY    61  51  70 N5        30.24S
LAMBERTVILLE   SUNNY     67  55  64 N5        30.23R
LANSING        CLOUDY    61  52  72 W5        30.24S
LAPEER         CLOUDY    61  51  70 N8        30.22S
MASON          CLOUDY    58  54  86 CALM      30.24S
MONROE         PTSUNNY   66  53  63 N7        30.21S
MT. CLEMENS    CLOUDY    62  53  73 NW9       30.19S
PONTIAC        CLOUDY    61  51  70 N7        30.22R
PORT HOPE        N/A     61  53  75 NW8       30.19R
PORT HURON     CLOUDY    59  54  82 NW3       30.21S
TRI CITIES     CLOUDY    62  54  74 NW3       30.23S
MIDLAND        CLOUDY    62  55  77 CALM      30.21S
TROY           CLOUDY    61  53  75 N5        30.24R
SAGINAW HB     CLOUDY    61  52  72 W3        30.22R
$$
MIZ043>046-050>051-056>058-064>065-071>073-077>080-271600-
SOUTHWEST LOWER MICHIGAN

CITY           SKY/WX    TMP DP  RH WIND       PRES   REMARKS
BATTLE CREEK   CLOUDY    60  54  80 NW3       30.26R
BENTON HARBOR  CLOUDY    63  55  75 SE7       30.23F
BIG RAPIDS     MOSUNNY   65  53  66 SW6       30.21S
COLDWATER      CLOUDY    59  58  96 CALM      30.24S
FREMONT        PTSUNNY   64  55  74 S5        30.21F
HOLLAND        CLOUDY    63  55  75 SE10      30.22F
GRAND RAPIDS   PTSUNNY   63  54  72 SE8       30.23F
IONIA          CLOUDY    62  52  68 CALM      30.23S
KALAMAZOO      CLOUDY    60  54  80 CALM      30.26R
LUDINGTON      PTSUNNY   68  60  75 S9        30.19F
MARSHALL       CLOUDY    57  54  88 CALM      30.25R
MOUNT PLEASANT CLOUDY    64  55  72 W3        30.22S
MUSKEGON       PTSUNNY   65  53  65 SE5       30.21F
SOUTH HAVEN    CLOUDY    60  55  83 SE6       30.22F
$$
MIZ016>042-271600-
NORTHERN LOWER MICHIGAN

CITY           SKY/WX    TMP DP  RH WIND       PRES   REMARKS
ALPENA         CLOUDY    58  51  78 VRB3      30.21S
BEAVER ISLAND  MOSUNNY   62  53  72 CALM      30.19F
BELLAIRE       CLOUDY    62  54  74 CALM      30.20F
CADILLAC       CLOUDY    64  55  71 W8        30.20S
CHARLEVOIX     MOSUNNY   62  54  73 CALM      30.22F
FRANKFORT      PTSUNNY   65  58  77 SW7       30.18F
GAYLORD        CLOUDY    59  53  80 W8        30.21S
GRAYLING       CLOUDY    62  54  75 SW3       30.21S
HARBOR SPRINGS CLOUDY    59  52  78 S3        30.20F
HOUGHTON LAKE  CLOUDY    61  54  77 NW3       30.22S
MANISTEE       PTSUNNY   64  54  68 SW6       30.19F
OSCODA         CLOUDY    59  50  71 NW6       30.20S
PELLSTON       CLOUDY    62  52  69 NW5       30.20F
ROGERS CITY    CLOUDY    58  50  74 W8        30.22S
TRAVERSE CITY  PTSUNNY   67  56  67 W9        30.19S
$$
MIZ007>008-015-271600-
EASTERN UPPER MICHIGAN

CITY           SKY/WX    TMP DP  RH WIND       PRES   REMARKS
KINROSS        CLOUDY    57  54  88 W6        30.20S
MACKINAC ISLAN CLOUDY    59  47  64 CALM      30.20S
NEWBERRY       PTSUNNY   58  50  75 CALM      30.19S
S. S. MARIE    CLOUDY    55  53  93 SW7       30.19S FOG
MUNISING         N/A     61  51  70 S6        30.17F
$$
MIZ004>006-011>014-085-271600-
CENTRAL UPPER MICHIGAN

CITY           SKY/WX    TMP DP  RH WIND       PRES   REMARKS
MANISTIQUE     SUNNY     60  52  75 SE5       30.19S
ESCANABA       CLOUDY    57  54  88 CALM      30.18S
MENOMINEE      SUNNY     61  52  72 E5        30.15F
SAWYER-GWINN   SUNNY     57  52  82 SW3       30.17F
$$
MIZ001>003-009>011-084-271600-
WESTERN UPPER MICHIGAN

CITY           SKY/WX    TMP DP  RH WIND       PRES   REMARKS
IRON MOUNTAIN  CLOUDY    53  52  96 CALM      30.16F FOG
HOUGHTON       SUNNY     58  50  75 SE3       30.14F
COPPER HARBOR    N/A     62  49  62 SW9       30.13F
IRONWOOD       SUNNY     61  54  77 SW7       30.12R
$$

ABBREVIATIONS USED IN REMARKS
   TC - TEMPERATURE IN CELSIUS
  WCI - WIND CHILL INDEX
   HX - HEAT INDEX
  VSB - VISIBILITY




USA.gov is the U.S. government's official web portal to all federal, state and local government web resources and services.